Regional Weather Roundup
Issued by NWS

Home | Current Version | Previous Version | Text Only | Print | Product List | Glossary Off
Versions: 1 2 3 4 5 6 7 8 9 10 11 12 13 14 15 16 17 18 19 20 21 22 23 24 25 26 27 28 29 30 31 32 33 34 35 36 37 38 39 40 41 42 43 44 45 46 47 48 49 50

000
ASUS43 KMPX 260201
RWRMN
WEATHER ROUNDUP FOR MINNESOTA
NATIONAL WEATHER SERVICE TWIN CITIES/CHANHASSEN MN
900 PM CDT SUN SEP 25 2016


NOTE: "FAIR" INDICATES FEW OR NO CLOUDS BELOW 12,000 FEET WITH NO
SIGNIFICANT WEATHER AND/OR OBSTRUCTIONS TO VISIBILITY. N/A MEANS
CURRENT SKY AND/OR WEATHER CONDITIONS ARE NOT AVAILABLE.

MNZ060>063-068>070-260300-
   Twin Cities Metro

CITY           SKY/WX    TMP DP  RH WIND       PRES   REMARKS
TWIN CITIES    PTCLDY    58  46  64 W12       29.98R
ST PAUL        MOCLDY    59  45  59 W14       29.98R
CRYSTAL        PTCLDY    58  44  60 W8        29.97R
BLAINE         PTCLDY    59  46  63 W16G28    29.97R
LAKEVILLE      PTCLDY    55  48  76 W6        30.00R
EDEN PRAIRIE   PTCLDY    58  47  66 W9        29.98R
LAKEVILLE      PTCLDY    55  48  76 W6        30.00R
SOUTH ST PAUL  MOCLDY    60  45  58 W10G18    29.98R
LAKE ELMO      MOCLDY    57  46  67 W15       29.98R
$$
MNZ001>005-007-008-013>017-022>024-027-028-260300-
   Northwest Minnesota

CITY           SKY/WX    TMP DP  RH WIND       PRES   REMARKS
BEMIDJI        DRIZZLE   49  47  94 W23G31    29.85S
HALLOCK        LGT RAIN  52  50  93 NW12G17   29.89R
ROSEAU         RAIN      52  46  82 NW20G25   29.80R
WARROAD        RAIN      50  46  87 W18       29.77R
THIEF RVR FALL LGT RAIN  50  48  93 W20       29.90R
CROOKSTON      LGT RAIN  50  48  93 NW24G33   29.93S
FOSSTON        HVY RAIN  46  45  93 W18G29    29.92R
DETROIT LAKES  DRIZZLE   50  46  87 NW15      29.97S
MOORHEAD       DRIZZLE   54  46  76 W7        29.99S
PARK RAPIDS    LGT RAIN  50  43  77 NW21G29   29.92R
MAHNOMEN       DRIZZLE   49  47  93 W13       29.94S
$$
MNZ006-009>011-018-025>026-260300-
   North Central Minnesota

CITY           SKY/WX    TMP DP  RH WIND       PRES   REMARKS
BAUDETTE       LGT RAIN  51  50  96 W21G30    29.73R FOG
FLAG ISLAND    LGT RAIN  54  52  94 NW21G28   29.71R
INTL FALLS     CLOUDY    53  51  93 W13G22    29.69F FOG
WASKISH        DRIZZLE   52  50  93 W21G30    29.78R
BIG FORK       DRIZZLE   52  50  93 SW9       29.77F
GRAND RAPIDS   CLOUDY    52  49  89 W13G21    29.83S
ORR            CLOUDY    52  48  87 W6        29.71S
COOK           DRIZZLE   54  52  94 SW14      29.75S
WALKER         DRIZZLE   48  46  93 W15G30    29.86S
$$
MNZ012-019>021-037-260300-
   Northeast Minnesota

CITY           SKY/WX    TMP DP  RH WIND       PRES   REMARKS
DULUTH         CLOUDY    54  51  90 W15G25    29.80R
ELY            CLOUDY    54  52  94 W12G20    29.73S
HIBBING        CLOUDY    52  47  83 W10G22    29.78S
EVELETH        CLOUDY    53  48  84 W13G20    29.79R
DULUTH HARBOR  MOCLDY    57  54  88 W14G21    29.81R
TWO HARBORS    CLOUDY    59  54  82 W12G20    29.76S
SILVER BAY     CLOUDY    57  52  82 SW6       29.74S
GRAND MARAIS     N/A     59  57  93 SW15      29.72F
G MARAIS ARPRT CLOUDY    54  48  82 S6        29.74F
$$
MNZ029>031-032-039>041-046>048-054>057-064-260300-
   West Central Minnesota

CITY           SKY/WX    TMP DP  RH WIND       PRES   REMARKS
FERGUS FALLS   LGT RAIN  52  46  82 NW14      30.03R
MORRIS         CLEAR     54  39  58 W10       30.01R
ALEXANDRIA     CLOUDY    54  45  71 NW13      30.02R
ELBOW LAKE     LGT RAIN  55  45  69 N10       30.01R
GLENWOOD       LGT RAIN  52  46  82 W6        30.01R
BENSON         CLEAR     54  37  54 NW8       30.03R
MADISON          N/A     55  41  58 W8        30.07R
WILLMAR        FAIR      55  43  62 W10       30.03R
$$
MNZ033>034-036-042>043-049>051-058-059-260300-
   Central Minnesota

CITY           SKY/WX    TMP DP  RH WIND       PRES   REMARKS
ST CLOUD       CLEAR     54  44  69 W10       29.97R
SAUK CENTRE    FAIR      48  46  91 W7        30.00R
PAYNESVILLE    PTCLDY    51  46  82 CALM      30.00R
AITKIN         CLOUDY    55  43  62 W9        29.87S
PINE RIVER     CLOUDY    52  46  82 W15G22    29.93R
BRAINERD       CLOUDY    53  44  71 W23G32    29.92R
STAPLES        DRIZZLE   52  43  71 W22G36    29.95R
LONG PRAIRIE   FAIR      52  41  66 W9        30.00R
LITTLE FALLS   CLEAR     54  39  58 W14G22    29.96R
LITCHFIELD     CLEAR     55  48  76 W6        30.01R
BUFFALO        PTCLDY    56  45  65 W12G17    30.00R
MAPLE LAKE     PTCLDY    56  47  74 W6        30.00R
HUTCHINSON     PTCLDY    57  46  65 W9        30.02R
$$
MNZ037-044-045-052-053-260300-
   East Central Minnesota

CITY           SKY/WX    TMP DP  RH WIND       PRES   REMARKS
PRINCETON      CLEAR     55  45  67 W10G18    29.96R
MORA           CLEAR     54  45  71 W15G22    29.93R
CAMBRIDGE      CLEAR     57  45  62 W10G22    29.93R
MOOSE LAKE     CLOUDY    54  46  76 W10G17    29.85R
HINCKLEY       CLOUDY    55  48  76 W13G20    29.90R
CLOQUET        CLOUDY    54  48  82 W8        29.83R
MCGREGOR       CLOUDY    54  46  76 W8G20     29.87R
$$
MNZ071>073-080-081-089-090-097-098-260300-
   Southwest Minnesota

CITY           SKY/WX    TMP DP  RH WIND       PRES   REMARKS
MONTEVIDEO     CLEAR     55  41  58 W7        30.07R
GRANITE FALLS  CLEAR     55  43  64 W9        30.07R
CANBY          PTCLDY    55  40  56 W9        30.10R
MARSHALL       PTCLDY    55  40  56 W12       30.09R
REDWOOD FALLS  CLEAR     56  40  55 W10       30.05R
OLIVIA         CLEAR     55  41  58 W9        30.04R
PIPESTONE      PTCLDY    55  37  50 NW8       30.13R
WINDOM         PTCLDY    54  43  66 W8        30.10R
WORTHINGTON    CLEAR     55  41  59 W12       30.13R
JACKSON        CLEAR     57  37  47 W9        30.11R
TRACY          PTCLDY    56  42  59 W7        30.10R
$$
MNZ065>067-074>077-082>085-091>093-260300-
   South Central Minnesota

CITY           SKY/WX    TMP DP  RH WIND       PRES   REMARKS
MANKATO        CLEAR     55  48  77 W9        30.04R
ST JAMES       CLEAR     57  43  58 W10       30.08R
FAIRMONT       CLEAR     57  44  62 NW13      30.08R
GLENCOE        CLEAR     56  50  79 W7        30.01R
FARIBAULT      PTCLDY    57  48  72 W8        30.02R
OWATONNA       CLEAR     55  48  76 W6        30.03R
WASECA         CLEAR     54  46  76 SW5       30.05R
ALBERT LEA     CLEAR     55  50  82 W3        30.05R
$$
MNZ078>079-086>088-094>096-260300-
   Southeast Minnesota

CITY           SKY/WX    TMP DP  RH WIND       PRES   REMARKS
ROCHESTER      CLOUDY    57  52  83 W9        30.02R
RED WING       CLOUDY    61  50  67 W10       29.97R
STANTON        PTCLDY    58  49  72 W5        29.99R
DODGE CENTER   PTCLDY    55  50  82 W8        30.02R
WINONA         CLOUDY    61  50  67 W13G20    29.98R
AUSTIN         PTCLDY    55  50  82 W6        30.04R
PRESTON        CLOUDY    57  49  77 W14       30.02R
$$
ABBREVIATIONS USED IN REMARKS
   TC - TEMPERATURES IN CELSIUS
  WCI - WIND CHILL INDEX
   HX - HEAT INDEX
  VSB - VISIBILITY
$$



USA.gov is the U.S. government's official web portal to all federal, state and local government web resources and services.